Change the Weather History Date:

Monday, September 9, 2013

  Actual Average Record
Temperature  
Mean Temperature 52 °F -  
Max Temperature 57 °F 55 °F 66 °F (1989)
Min Temperature 48 °F 39 °F 30 °F (2000)
Degree Days  
Heating Degree Days 12    
Growing Degree Days 2 (Base 50)    
Moisture  
Dew Point 48 °F    
Average Humidity 86    
Maximum Humidity 100    
Minimum Humidity 63    
Precipitation  
Precipitation 0.00 in - - ()
Sea Level Pressure  
Sea Level Pressure 29.74 in    
Wind  
Wind Speed 1 mph (South)    
Max Wind Speed 12 mph    
Max Gust Speed 16 mph    
Visibility 10 miles    
Events      
Averages and records for this station are not official NWS values.
T = Trace of Precipitation, MM = Missing Value Source: NWS Daily Summary

Daily Weather History Graph

Daily Weather History Graph

Search for Another Location

Airport or City:

Trip Planner

Search our weather history database for the weather conditions in past years. The results will help you decide how hot, cold, wet, or windy it might be!

Date:

Astronomy

Sep. 09, 2013 Rise Set
Actual Time 7:10 AM AKDT 8:38 PM AKDT
Civil Twilight 6:25 AM AKDT 9:23 PM AKDT
Nautical Twilight 5:27 AM AKDT 10:20 PM AKDT
Astronomical Twilight 4:17 AM AKDT 11:28 PM AKDT
Moon 1:14 PM AKDT (9/9) 9:26 PM AKDT (9/9)
Length of Visible Light 14h 58m
Length of Day
13h 27m
Waxing Crescent, 20% of the Moon is Illuminated
Sep 9
Waxing Crescent
Sep 12
First Quarter
Sep 19
Full
Sep 26
Last Quarter
Oct 4
New

Hourly Weather History & Observations

Time (AKDT) Temp. Dew Point Humidity Pressure Visibility Wind Dir Wind Speed Gust Speed Precip Events Conditions
12:16 AM 48.2 °F 48.2 °F 100% 29.86 in 10.0 mi Calm Calm - N/A   Overcast
12:36 AM 48.2 °F 48.2 °F 100% 29.86 in 10.0 mi Calm Calm - N/A   Overcast
12:56 AM 48.2 °F 48.2 °F 100% 29.86 in 10.0 mi Calm Calm - N/A   Overcast
1:16 AM 48.2 °F 48.2 °F 100% 29.85 in 10.0 mi SE 3.5 mph - N/A   Overcast
1:36 AM 50.0 °F 48.2 °F 94% 29.85 in 10.0 mi Calm Calm - N/A   Overcast
1:56 AM 48.2 °F 48.2 °F 100% 29.85 in 10.0 mi Calm Calm - N/A   Overcast
2:16 AM 48.2 °F 46.4 °F 93% 29.84 in 10.0 mi SE 3.5 mph - N/A   Overcast
2:36 AM 48.2 °F 46.4 °F 93% 29.84 in 10.0 mi Calm Calm - N/A   Overcast
2:56 AM 48.2 °F 44.6 °F 87% 29.83 in 10.0 mi Calm Calm - N/A   Overcast
3:16 AM 48.2 °F 46.4 °F 93% 29.83 in 10.0 mi Calm Calm - N/A   Overcast
3:36 AM 48.2 °F 46.4 °F 93% 29.83 in 10.0 mi Calm Calm - N/A   Overcast
3:56 AM 48.2 °F 46.4 °F 93% 29.82 in 10.0 mi SSE 3.5 mph - N/A   Overcast
4:16 AM 48.2 °F 46.4 °F 93% 29.83 in 10.0 mi SE 3.5 mph - N/A   Overcast
4:36 AM 48.2 °F 46.4 °F 93% 29.82 in 10.0 mi SSE 3.5 mph - N/A   Overcast
4:56 AM 48.2 °F 46.4 °F 93% 29.81 in 10.0 mi Calm Calm - N/A   Mostly Cloudy
5:16 AM 48.2 °F 46.4 °F 93% 29.81 in 10.0 mi ENE 3.5 mph - N/A   Mostly Cloudy
5:36 AM 48.2 °F 46.4 °F 93% 29.81 in 10.0 mi Calm Calm - N/A   Overcast
5:56 AM 48.2 °F 46.4 °F 93% 29.80 in 10.0 mi Calm Calm - N/A   Mostly Cloudy
6:16 AM 48.2 °F 46.4 °F 93% 29.79 in 10.0 mi Calm Calm - N/A   Mostly Cloudy
6:36 AM 48.2 °F 46.4 °F 93% 29.79 in 10.0 mi West 3.5 mph - N/A   Overcast
6:56 AM 48.2 °F 46.4 °F 93% 29.78 in 10.0 mi Calm Calm - N/A   Overcast
7:16 AM 48.2 °F 46.4 °F 93% 29.78 in 10.0 mi South 3.5 mph - N/A   Mostly Cloudy
7:36 AM 48.2 °F 46.4 °F 93% 29.78 in 10.0 mi Calm Calm - N/A   Mostly Cloudy
7:56 AM 48.2 °F 46.4 °F 93% 29.78 in 10.0 mi SSW 3.5 mph - N/A   Overcast
8:16 AM 48.2 °F 46.4 °F 93% 29.78 in 10.0 mi Calm Calm - N/A   Overcast
8:36 AM 48.2 °F 46.4 °F 93% 29.78 in 10.0 mi Calm Calm - N/A   Overcast
8:56 AM 48.2 °F 46.4 °F 93% 29.77 in 10.0 mi Calm Calm - N/A   Overcast
9:16 AM 48.2 °F 46.4 °F 93% 29.77 in 10.0 mi Calm Calm - N/A   Overcast
9:36 AM 48.2 °F 48.2 °F 100% 29.76 in 10.0 mi Calm Calm - N/A   Overcast
9:56 AM 48.2 °F 48.2 °F 100% 29.76 in 10.0 mi Calm Calm - N/A   Mostly Cloudy
10:16 AM 48.2 °F 48.2 °F 100% 29.76 in 10.0 mi Calm Calm - N/A   Mostly Cloudy
10:36 AM 48.2 °F 48.2 °F 100% 29.74 in 10.0 mi Calm Calm - N/A   Mostly Cloudy
10:56 AM 50.0 °F 48.2 °F 94% 29.74 in 10.0 mi Calm Calm - N/A   Mostly Cloudy
11:16 AM 51.8 °F 46.4 °F 82% 29.74 in 10.0 mi Calm Calm - N/A   Mostly Cloudy
11:36 AM 51.8 °F 46.4 °F 82% 29.73 in 10.0 mi Calm Calm - N/A   Partly Cloudy
11:56 AM 53.6 °F 46.4 °F 77% 29.73 in 10.0 mi SW 3.5 mph - N/A   Clear
12:16 PM 53.6 °F 46.4 °F 77% 29.73 in 10.0 mi WSW 3.5 mph - N/A   Clear
12:36 PM 55.4 °F 46.4 °F 72% 29.73 in 10.0 mi WSW 3.5 mph - N/A   Clear
12:56 PM 55.4 °F 46.4 °F 72% 29.72 in 10.0 mi SW 3.5 mph - N/A   Partly Cloudy
1:16 PM 55.4 °F 50.0 °F 82% 29.72 in 10.0 mi Calm Calm - N/A   Mostly Cloudy
1:36 PM 55.4 °F 50.0 °F 82% 29.71 in 10.0 mi Calm Calm - N/A   Mostly Cloudy
1:56 PM 55.4 °F 50.0 °F 82% 29.70 in 10.0 mi Calm Calm - N/A   Clear
2:16 PM 55.4 °F 50.0 °F 82% 29.70 in 10.0 mi Calm Calm - N/A   Clear
2:56 PM 55.4 °F 50.0 °F 82% 29.69 in 10.0 mi Calm Calm - N/A   Scattered Clouds
3:16 PM 55.4 °F 48.2 °F 77% 29.68 in 10.0 mi Calm Calm - N/A   Scattered Clouds
3:36 PM 57.2 °F 48.2 °F 72% 29.68 in 8.0 mi Calm Calm - N/A   Mostly Cloudy
3:56 PM 57.2 °F 50.0 °F 77% 29.68 in 10.0 mi Calm Calm - N/A   Scattered Clouds
4:16 PM 57.2 °F 51.8 °F 82% 29.67 in 10.0 mi Calm Calm - N/A   Mostly Cloudy
4:36 PM 55.4 °F 50.0 °F 82% 29.67 in 10.0 mi SSW 3.5 mph - N/A   Mostly Cloudy
4:56 PM 57.2 °F 51.8 °F 82% 29.67 in 10.0 mi Calm Calm - N/A   Scattered Clouds
5:16 PM 57.2 °F 51.8 °F 82% 29.67 in 10.0 mi North 4.6 mph - N/A   Partly Cloudy
5:36 PM 55.4 °F 51.8 °F 88% 29.66 in 10.0 mi SSE 3.5 mph - N/A   Partly Cloudy
5:56 PM 57.2 °F 51.8 °F 82% 29.66 in 10.0 mi North 6.9 mph - N/A   Clear
6:16 PM 57.2 °F 46.4 °F 67% 29.65 in 10.0 mi Calm Calm - N/A   Clear
6:36 PM 57.2 °F 44.6 °F 63% 29.64 in 10.0 mi ENE 11.5 mph 16.1 mph N/A   Mostly Cloudy
6:56 PM 57.2 °F 48.2 °F 72% 29.64 in 10.0 mi Calm Calm - N/A   Mostly Cloudy
7:16 PM 57.2 °F 46.4 °F 67% 29.65 in 10.0 mi Calm Calm - N/A   Mostly Cloudy
7:36 PM 57.2 °F 48.2 °F 72% 29.65 in 10.0 mi SSW 3.5 mph - N/A   Overcast
7:56 PM 55.4 °F 48.2 °F 77% 29.65 in 10.0 mi SSW 4.6 mph - N/A   Overcast
8:16 PM 55.4 °F 46.4 °F 72% 29.65 in 10.0 mi Calm Calm - N/A   Overcast
8:36 PM 55.4 °F 46.4 °F 72% 29.65 in 10.0 mi Calm Calm - N/A   Overcast
8:56 PM 53.6 °F 46.4 °F 77% 29.67 in 10.0 mi South 4.6 mph - N/A   Overcast
9:16 PM 53.6 °F 46.4 °F 77% 29.66 in 10.0 mi South 4.6 mph - N/A   Overcast
9:36 PM 53.6 °F 46.4 °F 77% 29.67 in 10.0 mi Calm Calm - N/A   Overcast
9:56 PM 53.6 °F 46.4 °F 77% 29.67 in 10.0 mi ESE 3.5 mph - N/A   Overcast
10:16 PM 53.6 °F 48.2 °F 82% 29.68 in 10.0 mi Calm Calm - N/A   Overcast
10:36 PM 53.6 °F 48.2 °F 82% 29.69 in 10.0 mi SSW 3.5 mph - N/A   Overcast
10:56 PM 53.6 °F 48.2 °F 82% 29.68 in 10.0 mi Calm Calm - N/A   Overcast
11:16 PM 51.8 °F 48.2 °F 88% 29.69 in 10.0 mi Calm Calm - N/A   Overcast
11:36 PM 51.8 °F 48.2 °F 88% 29.69 in 10.0 mi Calm Calm - N/A   Overcast
11:56 PM 51.8 °F 48.2 °F 88% 29.70 in 10.0 mi Calm Calm - N/A   Overcast